Theta_e
317 308 307 306 307 309 310 311 311 311 310 309 309 309 309 310 312 316 317 316 316 314 314 315 316 316 317 318 322 330 332 333 333 334 338 341 341 343 343 344 345 347 347 350 352 352 353 352 354 355 356 356 356 358 359 359 360 360 359 359 358 358 359 358 355 354 353 352 353 355 352 352 353 356 359 359 361 361 359 362 364 368 366 367 367 367
314 306 307 309 309 311 311 311 311 310 309 308 308 307 307 310 309 315 316 318 317 313 314 317 315 315 317 319 319 327 329 329 331 333 337 339 341 343 344 344 345 348 350 350 351 352 352 352 354 354 355 356 354 356 358 358 359 360 361 359 359 359 359 358 357 356 356 357 355 354 353 354 355 356 356 358 361 359 360 364 367 368 367 366 367 367
306 304 308 311 311 312 312 311 310 309 307 308 307 308 307 308 311 314 316 316 316 314 313 315 314 315 318 319 321 322 328 330 331 333 336 340 341 342 343 344 346 347 348 349 350 351 351 352 352 354 355 356 356 356 357 359 360 361 360 361 362 359 359 358 359 360 359 360 361 358 358 357 355 360 361 360 360 362 360 364 369 368 367 367 367 368
303 306 310 312 312 310 310 311 309 308 308 306 305 304 304 310 308 307 313 315 316 315 313 316 313 314 317 320 320 321 328 331 332 333 335 338 340 342 343 345 345 346 347 347 349 349 350 351 353 354 354 355 355 356 356 357 358 359 360 361 361 361 361 360 360 361 363 364 364 364 362 361 360 359 362 363 362 364 363 362 368 369 366 367 366 367
305 309 312 311 311 310 308 310 308 306 304 306 306 305 305 307 309 309 311 312 314 314 314 313 311 311 315 315 317 320 325 329 331 332 334 338 340 343 344 346 347 346 348 348 349 350 350 351 352 354 355 355 354 355 356 356 356 357 359 361 362 362 362 362 363 363 365 364 364 363 364 365 362 364 362 361 360 363 364 362 365 367 367 367 366 367
308 312 313 310 309 310 309 307 307 306 303 305 307 306 307 308 307 309 311 311 309 309 314 311 305 307 314 316 316 319 323 326 330 332 333 336 339 342 342 344 347 347 351 350 349 350 351 352 354 355 356 355 355 356 357 357 358 359 359 361 363 363 364 363 364 365 365 362 361 359 357 354 355 356 357 357 356 357 358 356 359 367 367 365 367 368
309 313 312 310 309 309 308 306 307 308 304 303 305 309 308 308 308 308 308 308 304 303 311 315 305 304 314 314 317 319 324 326 330 332 334 337 339 341 342 343 345 345 347 351 351 351 351 352 352 354 355 355 355 356 358 359 359 359 360 362 363 363 362 364 365 366 364 363 363 361 357 356 356 355 358 361 360 360 359 361 361 363 367 367 366 366
310 311 311 311 309 308 306 304 307 308 304 302 309 309 309 307 306 307 308 307 306 311 312 312 310 305 305 312 318 321 322 324 328 331 334 335 340 339 342 342 345 345 347 349 350 351 352 353 353 353 356 356 354 356 357 358 359 360 362 362 363 362 363 365 365 364 364 362 362 361 360 358 357 357 358 362 364 364 364 363 362 362 366 369 368 366
310 308 309 308 308 307 305 307 309 310 306 305 309 310 309 309 308 307 307 306 306 306 303 308 312 305 305 311 318 318 316 320 324 328 333 335 338 340 341 342 344 346 347 348 349 350 351 352 353 355 356 357 357 357 357 358 360 361 363 364 363 363 365 366 367 364 363 363 362 361 361 358 359 361 361 364 364 362 364 365 365 364 366 369 371 368
311 311 311 311 308 305 308 310 310 310 306 309 310 311 311 310 309 308 305 305 305 304 300 305 309 304 304 311 313 316 315 316 320 324 330 335 336 339 339 342 343 346 347 348 349 351 352 353 354 355 357 358 356 357 360 360 361 362 364 364 364 364 365 366 367 365 364 364 364 362 362 361 360 361 362 363 363 364 366 365 366 365 365 366 369 370
311 316 316 312 309 310 310 312 312 311 311 313 310 308 308 307 307 307 306 306 304 298 300 305 308 306 300 308 310 312 313 317 318 321 325 333 336 338 340 341 342 344 346 347 349 351 353 354 355 356 355 357 358 358 359 360 362 363 364 364 364 365 365 366 364 363 362 363 364 362 363 363 363 362 361 361 363 364 366 364 364 365 365 366 365 366
310 311 310 312 314 313 312 310 312 313 313 310 307 306 305 304 306 305 304 306 298 296 303 307 306 307 298 304 311 315 318 319 320 319 321 325 334 337 339 339 340 343 346 347 347 348 352 353 354 355 356 357 358 359 359 359 361 362 364 365 364 366 366 365 364 363 361 362 363 365 365 365 365 365 361 361 361 364 364 364 362 364 364 366 365 367
304 306 310 312 316 312 309 307 309 311 311 308 307 306 299 298 299 296 300 295 295 295 303 305 306 302 301 307 312 315 316 318 321 321 321 324 332 337 339 340 340 342 345 347 348 349 350 351 352 353 355 358 358 358 359 359 360 361 364 365 365 365 366 365 364 362 362 363 364 364 364 366 367 365 365 363 362 364 364 364 363 363 363 365 365 365
302 308 308 309 311 313 311 303 304 304 306 306 304 302 298 296 295 291 296 299 299 302 305 305 307 301 306 310 314 313 316 318 320 323 323 323 326 336 339 341 339 342 344 346 347 348 350 351 352 353 355 356 358 358 358 359 360 362 362 365 365 365 366 365 364 364 362 362 364 365 365 366 367 366 366 364 362 363 364 365 364 363 362 364 364 364
297 297 303 307 304 312 309 308 308 306 306 305 308 304 302 301 297 294 296 294 295 299 303 305 301 300 301 305 313 315 317 318 320 321 323 324 324 332 339 340 340 341 344 346 348 348 349 351 353 353 354 355 357 358 358 359 360 362 362 364 365 366 367 366 365 364 362 362 364 364 366 367 368 366 365 364 364 364 364 364 365 365 364 363 365 365
301 301 307 310 310 311 307 310 312 309 307 308 308 308 303 301 306 299 302 300 299 299 299 302 300 305 305 314 316 318 317 318 318 318 319 321 322 324 333 335 336 338 341 344 346 348 350 352 354 353 354 355 356 358 358 359 359 360 361 364 365 365 367 366 364 364 363 364 364 365 365 365 367 367 366 365 366 365 365 367 366 366 367 366 366 369
303 300 309 309 311 310 309 311 310 312 300 306 306 301 303 310 307 302 303 303 303 302 299 306 303 305 310 311 314 315 315 316 317 318 318 320 322 325 328 333 336 337 340 343 345 347 350 351 353 353 355 355 356 356 358 360 361 361 361 362 364 365 367 366 366 364 363 363 363 365 365 365 366 365 365 364 365 363 366 368 367 365 366 368 368 368
302 302 309 308 305 310 313 312 311 312 312 308 301 305 310 312 309 304 297 301 298 294 297 302 300 303 302 300 311 311 311 313 314 315 317 320 322 324 328 333 336 337 339 343 347 349 350 351 353 353 353 355 355 356 357 360 362 362 362 363 363 364 365 366 365 364 364 364 364 366 366 367 367 364 366 365 365 366 365 366 368 366 365 366 366 367
309 302 305 308 308 310 312 311 309 312 313 309 306 313 304 299 298 304 302 294 295 294 296 299 302 302 304 305 311 311 310 311 314 316 316 317 319 322 327 331 336 338 339 342 345 347 349 350 351 354 353 354 355 358 359 359 360 360 361 362 362 364 364 365 364 364 364 365 364 365 366 366 366 365 367 367 367 367 365 364 365 366 365 366 368 368
309 302 303 309 308 310 310 308 301 305 310 312 313 308 311 308 303 300 301 303 302 297 298 298 301 299 308 308 310 311 314 315 314 315 316 317 318 321 326 328 331 336 338 340 343 345 348 349 351 352 352 352 354 356 357 357 357 357 358 360 362 364 365 365 365 366 365 365 366 365 365 367 368 369 368 367 367 365 365 365 365 366 364 366 366 367
306 309 300 305 310 309 302 306 304 306 303 304 305 305 306 306 310 308 306 302 300 298 298 299 297 303 311 313 311 312 315 317 317 317 318 318 319 320 324 327 330 335 338 341 343 345 348 349 349 351 353 352 354 356 356 356 356 356 357 358 360 361 362 362 363 364 365 365 365 366 367 367 368 367 367 367 367 366 366 366 366 365 366 367 366 367
306 305 301 304 304 303 305 310 309 309 309 306 305 304 306 303 302 299 298 306 303 300 296 298 297 307 309 312 313 313 315 315 316 317 319 322 321 324 324 328 332 335 340 342 342 344 346 349 349 349 352 353 351 352 353 354 355 355 356 356 357 358 359 360 361 364 365 365 364 365 365 367 368 367 367 367 366 366 365 366 366 367 368 366 367 368
310 309 304 302 303 304 307 311 313 313 312 310 308 305 308 307 306 302 295 301 304 303 304 303 300 304 315 315 315 315 315 315 317 316 317 319 322 323 325 327 334 340 341 341 342 342 344 348 349 349 350 352 352 352 352 353 353 354 355 355 356 356 357 358 360 362 365 364 364 365 366 366 366 367 367 366 366 364 363 365 367 368 366 365 365 368
313 306 302 303 307 308 310 312 312 312 311 308 308 309 308 305 306 304 303 307 303 303 300 300 299 304 313 318 316 315 318 316 318 317 318 318 320 323 326 329 337 342 344 341 342 339 342 344 348 351 350 351 352 353 352 352 353 354 354 353 354 354 355 357 359 360 363 364 364 365 365 365 365 365 365 363 364 363 364 364 366 367 366 366 364 365
302 306 304 300 301 302 303 307 307 310 310 307 306 308 309 309 308 308 308 308 303 304 303 300 296 303 312 317 320 317 316 316 316 317 319 319 321 321 324 333 338 343 344 339 339 339 341 341 345 350 351 354 353 351 353 352 352 352 353 353 353 354 355 357 359 359 361 363 362 362 364 364 364 364 364 363 363 363 363 363 364 366 366 366 364 365
304 305 303 298 295 293 292 293 296 300 303 307 309 309 309 307 307 305 301 304 297 306 307 301 302 309 313 316 315 315 315 317 318 317 317 320 324 325 328 331 337 340 343 344 343 342 340 344 347 352 353 354 352 351 354 355 352 351 352 353 353 353 355 356 357 359 360 361 361 362 363 364 364 363 363 363 362 362 362 362 363 364 365 366 365 365
306 307 307 305 303 301 303 306 306 309 306 302 304 306 307 308 309 308 306 303 300 304 303 306 307 308 310 311 312 314 316 316 316 318 318 320 324 330 339 335 335 342 347 343 345 345 346 347 347 352 354 351 350 352 352 352 352 351 353 354 353 354 355 357 358 359 359 360 360 362 363 364 363 362 362 364 363 362 362 362 361 362 363 365 365 364
305 303 304 306 305 304 302 303 304 305 305 305 304 304 306 307 307 306 303 301 310 304 298 307 311 306 309 311 313 314 315 317 317 319 320 323 329 325 325 343 342 335 341 344 346 346 348 349 350 351 354 352 350 352 351 352 351 352 353 352 353 353 354 355 357 358 358 360 360 362 362 364 365 363 363 364 365 364 363 363 363 363 365 365 365 364
302 300 303 302 301 301 301 302 304 304 305 305 306 305 305 306 307 305 305 307 308 303 302 309 311 309 310 311 313 315 316 317 316 318 320 322 321 324 334 329 323 326 341 341 346 349 351 350 354 353 352 351 349 349 350 350 351 353 354 354 354 352 353 356 357 358 358 360 361 363 365 366 366 366 365 364 366 365 364 364 365 365 365 366 365 365
302 300 302 301 299 299 301 301 303 303 303 304 305 305 306 306 306 306 306 307 307 308 308 309 312 310 311 313 314 315 318 317 317 319 320 320 318 322 322 327 324 323 324 337 345 346 350 350 353 356 354 354 350 349 348 349 352 351 352 353 352 354 354 356 357 359 359 360 362 364 366 367 367 367 366 365 365 367 366 365 366 365 365 365 365 367
299 299 299 299 298 299 301 302 301 302 302 302 304 305 305 306 306 307 306 307 308 307 307 308 309 309 314 318 317 318 319 318 318 317 317 320 320 319 320 320 323 322 323 326 349 347 350 350 349 353 355 355 353 351 350 351 352 351 350 352 353 354 354 354 359 360 360 361 364 365 367 368 367 367 366 366 366 367 367 366 365 366 366 366 367 367
300 297 299 299 296 298 300 300 301 301 301 301 301 303 304 304 303 305 304 307 306 306 308 307 306 307 313 316 317 318 318 319 319 318 318 318 318 319 319 320 322 324 324 325 328 343 352 351 351 351 352 352 353 353 352 353 352 351 349 352 353 353 352 353 355 358 362 362 365 365 367 368 368 367 366 366 366 367 368 367 366 366 367 366 366 367
298 297 296 297 294 296 300 300 299 299 299 297 299 302 304 305 306 307 308 309 308 309 306 304 305 312 315 317 315 317 316 316 316 316 318 319 322 320 321 321 321 322 323 327 329 349 345 341 344 353 349 349 350 351 351 353 349 352 353 354 356 356 354 354 356 361 363 363 365 367 367 368 368 367 367 367 367 367 368 367 366 366 366 365 367 368
298 297 295 298 293 296 298 298 299 297 291 294 307 308 307 305 306 304 305 307 309 310 308 311 311 315 316 315 314 315 316 317 318 321 321 322 322 323 321 323 321 322 323 324 328 340 343 347 347 345 348 353 351 348 354 355 350 352 355 355 356 356 358 357 358 362 363 363 365 366 366 367 367 367 367 367 367 368 368 367 366 366 367 367 367 366
297 297 296 298 294 294 297 297 294 290 293 307 309 311 310 309 308 307 308 309 309 311 311 310 312 313 315 316 316 318 320 320 319 319 319 321 324 326 327 325 325 328 330 333 340 341 346 353 356 355 352 348 347 350 352 352 351 352 354 355 354 357 358 357 358 360 363 362 363 365 366 366 366 365 366 367 367 367 367 367 367 367 366 365 365 365
295 295 296 295 296 297 295 295 288 291 302 304 307 310 316 313 314 312 308 311 312 312 312 310 312 313 315 315 315 318 319 318 319 322 326 327 324 327 323 322 323 324 325 333 345 358 361 355 356 356 356 354 350 348 349 352 352 348 352 356 357 358 358 360 361 360 363 362 363 364 365 364 364 364 365 366 366 365 365 365 365 366 366 365 364 365
298 297 296 292 298 291 294 294 294 303 300 302 302 310 313 311 313 309 303 307 311 313 320 322 320 317 316 316 316 316 318 317 318 323 324 324 328 329 327 325 325 339 348 353 351 351 359 361 360 360 361 358 352 348 347 349 351 350 351 355 355 359 359 359 360 360 362 362 362 363 363 364 363 363 364 365 365 364 364 364 365 366 367 365 364 363
300 295 297 292 293 296 292 292 293 293 291 298 306 314 317 318 318 317 313 311 321 323 323 323 321 323 321 321 324 326 324 318 314 316 321 322 326 331 334 335 343 347 346 349 355 354 358 360 360 361 359 356 353 352 352 351 352 353 353 355 356 357 357 356 357 360 362 362 362 364 364 364 364 364 364 365 364 364 364 364 366 366 367 364 363 361
299 299 298 294 292 293 292 289 290 290 295 306 308 314 316 318 314 321 307 303 322 324 324 325 323 326 327 327 330 331 322 313 313 318 322 322 325 335 338 342 343 346 351 352 352 352 355 360 360 357 357 354 351 353 354 354 354 351 352 356 356 356 354 354 356 357 359 361 362 364 364 364 365 365 365 365 364 364 363 363 365 365 366 365 364 363
295 295 294 291 291 292 292 290 289 295 295 306 312 313 316 317 316 315 298 300 320 324 323 327 325 326 329 331 332 330 323 314 314 322 342 344 343 346 347 350 350 350 351 352 352 354 357 358 360 358 357 355 361 360 358 355 353 353 356 356 354 353 352 354 356 360 361 361 361 363 364 364 366 366 364 364 365 366 365 365 364 364 364 365 364 363
292 293 293 289 291 291 290 291 294 296 303 304 310 314 316 313 312 302 294 313 318 323 325 327 325 326 329 329 331 327 332 329 330 337 341 344 341 345 347 348 348 348 349 349 349 351 356 355 356 356 357 359 360 356 358 355 354 353 356 357 355 353 353 357 360 362 362 363 361 361 363 363 364 364 364 365 366 366 365 364 363 364 364 362 363 363
292 293 293 294 290 290 291 289 290 296 303 305 307 307 311 306 299 299 316 320 324 323 328 326 326 328 329 329 330 331 333 336 337 337 337 341 344 346 346 346 347 348 349 349 348 351 354 353 356 357 357 359 358 355 357 356 354 354 358 358 355 356 357 359 362 363 364 364 363 361 362 363 365 366 365 366 365 366 365 365 365 365 364 363 363 364
293 291 289 290 293 293 293 290 288 284 299 305 309 306 309 301 304 318 321 326 322 325 325 328 327 328 328 327 330 331 332 333 335 337 341 343 342 344 345 345 346 345 345 347 350 350 351 352 353 353 354 354 359 358 356 356 357 358 360 357 359 360 362 363 364 365 365 365 363 363 363 364 365 366 365 364 365 366 366 366 366 366 366 366 365 364
299 291 292 293 296 289 289 288 288 298 308 312 313 304 310 313 320 322 321 314 324 325 326 326 330 329 328 328 328 330 332 333 336 338 338 340 342 342 342 343 343 345 344 344 346 348 349 350 350 350 353 354 359 364 362 361 359 360 361 361 364 367 365 365 364 365 363 363 363 363 363 364 364 366 366 365 365 365 366 365 366 366 366 366 364 362
299 296 298 293 301 296 293 296 303 306 309 311 313 314 318 320 322 324 323 322 322 325 327 327 329 329 329 329 329 330 330 332 333 334 335 338 340 340 340 341 342 343 344 343 342 346 348 348 348 349 350 351 355 358 361 361 359 358 356 358 361 364 365 366 363 362 361 361 362 363 363 363 364 365 366 366 366 365 364 366 366 363 364 363 362 360
302 300 301 298 297 303 304 303 305 306 307 309 314 316 317 319 321 321 322 322 325 327 328 327 327 327 327 329 329 330 331 331 332 333 335 336 337 339 340 341 342 343 344 344 344 345 346 347 348 348 348 350 352 352 354 356 357 354 354 357 357 361 363 364 365 364 361 361 362 362 363 362 362 364 366 366 365 366 366 366 364 362 362 362 359 359
300 301 298 293 299 295 291 304 304 305 308 310 310 313 314 318 320 322 323 326 325 326 328 328 327 327 327 328 328 329 330 332 332 334 337 337 337 338 339 340 342 343 343 343 344 345 347 347 345 345 346 347 350 351 351 352 352 354 355 356 358 360 361 363 363 363 364 364 363 364 363 362 360 360 362 365 362 362 362 362 361 360 359 360 359 358
295 303 297 297 296 293 294 300 303 305 307 308 309 309 310 316 320 323 324 326 327 327 327 328 328 327 328 326 327 328 329 331 333 333 333 335 336 338 338 339 340 341 343 344 343 344 346 346 345 344 345 344 346 347 347 348 349 351 353 353 356 358 359 360 362 362 362 361 362 362 362 361 358 359 360 359 359 358 358 359 359 358 358 358 358 358
298 300 293 298 295 297 301 302 303 304 304 305 306 309 312 315 319 322 323 324 326 327 327 328 327 327 326 326 327 327 328 329 332 333 333 333 336 337 337 339 340 341 342 341 342 343 343 343 343 343 343 342 344 344 345 346 347 348 349 351 353 356 355 356 356 358 358 356 356 356 359 362 362 360 359 360 361 360 361 361 360 360 363 365 363 356
298 293 298 297 293 292 294 298 305 299 299 304 308 314 317 316 315 317 321 324 326 327 328 327 326 327 326 326 326 325 323 324 329 332 332 333 334 336 338 339 340 340 340 341 342 342 342 342 341 341 341 342 344 344 344 344 344 347 348 350 352 352 351 351 351 352 352 353 353 353 353 355 356 357 356 357 357 357 357 345 324 340 353 354 336 320
297 298 297 294 293 293 300 305 306 306 305 306 309 312 313 313 312 311 315 319 322 327 328 327 325 325 325 326 327 326 325 325 328 332 332 332 333 336 338 339 339 339 340 341 341 341 341 341 342 342 341 342 344 344 344 343 343 345 347 347 349 349 348 348 345 346 346 346 347 347 350 350 352 352 351 351 351 352 349 353 356 318 315 324 325 317
Wind_Speed
11 14 15 17 15 16 18 18 15 16 7 8 12 12 13 14 12 11 10 3 4 9 12 13 14 13 11 9 4 8 10 11 11 12 12 14 15 16 16 16 16 17 17 16 19 20 20 20 18 16 15 16 17 16 17 17 17 16 15 14 15 13 14 13 13 13 13 13 12 11 12 11 10 10 9 8 8 8 8 7 7 7 7 7 7 7
12 15 17 18 17 15 17 17 17 16 12 11 9 12 12 14 13 12 10 7 5 7 10 10 11 12 12 11 10 9 11 12 12 14 15 16 17 16 18 18 17 15 12 16 16 19 20 18 19 17 15 16 18 17 17 18 18 17 17 16 15 14 14 14 14 13 12 12 11 11 11 10 10 10 9 9 8 8 8 8 7 7 7 7 7 7
16 19 17 17 17 14 14 16 17 18 14 13 12 10 12 13 13 12 10 5 6 6 10 11 14 15 14 13 13 10 13 11 13 14 15 16 17 15 16 18 16 15 15 17 18 19 19 21 21 17 16 16 18 18 18 17 17 17 16 15 15 14 14 14 14 13 12 11 11 11 10 10 8 9 9 8 8 8 8 8 8 8 7 8 7 8
15 17 19 17 16 17 15 14 16 16 14 12 13 13 14 12 11 11 13 12 11 10 10 10 13 11 12 12 12 10 13 12 13 15 15 15 17 17 17 16 16 17 16 18 19 20 20 20 19 18 17 16 17 17 17 18 18 15 15 15 15 14 15 14 14 14 13 12 11 10 8 9 8 7 8 8 8 8 9 9 9 8 8 9 8 9
17 7 18 19 18 18 17 16 16 14 14 16 17 15 14 13 12 12 2 5 5 8 11 11 13 14 14 15 13 13 14 13 13 14 14 14 14 15 14 15 16 19 19 18 19 19 20 20 20 19 17 17 17 17 17 18 17 13 17 16 16 15 15 14 15 15 13 13 12 10 8 8 8 7 8 8 9 9 9 9 9 9 9 9 9 9
18 12 4 19 20 18 18 16 18 15 14 14 19 19 15 13 14 10 12 8 6 10 11 11 10 14 14 17 17 11 11 13 12 13 15 15 14 14 15 16 17 17 17 18 20 21 21 20 19 19 19 19 17 17 17 17 17 16 15 16 16 14 14 14 16 15 13 12 12 12 10 10 10 10 10 11 10 10 10 10 9 9 10 10 9 9
14 14 12 16 18 18 20 18 17 18 14 14 13 17 18 16 13 12 9 10 12 12 7 8 11 12 10 15 11 8 10 13 12 13 14 14 14 14 14 15 16 17 17 17 17 18 20 20 20 20 20 20 19 18 17 16 17 18 16 17 17 15 13 14 15 18 13 14 12 13 13 12 12 11 10 9 9 9 9 8 9 9 10 10 10 10
14 16 15 16 18 18 17 18 17 18 14 14 8 9 15 19 17 14 12 12 11 10 11 7 8 12 13 13 10 9 12 12 13 13 13 14 15 15 15 16 16 17 18 17 19 20 20 21 22 23 22 20 19 18 17 17 16 18 18 17 18 15 14 14 15 18 15 13 12 13 14 12 11 11 10 10 10 9 8 9 10 9 8 10 10 10
19 18 19 19 17 14 15 16 15 18 15 11 9 6 9 14 17 15 13 11 11 12 13 13 15 13 15 14 13 12 13 13 14 14 15 15 16 16 16 16 18 18 19 19 18 20 21 22 22 21 21 21 19 18 18 17 17 17 17 17 17 17 17 15 17 16 16 14 13 13 12 12 10 10 9 8 9 9 9 9 9 9 9 9 10 10
13 19 19 19 16 14 13 14 16 18 16 15 4 4 7 9 12 14 12 12 12 12 17 14 14 14 16 13 13 14 16 15 14 14 15 17 17 16 16 17 18 18 18 19 20 20 21 21 21 21 19 19 19 18 18 17 16 16 16 17 20 20 15 14 17 16 17 16 13 13 13 14 11 10 9 9 9 10 9 10 10 9 9 9 9 10
9 11 15 14 16 15 12 12 14 17 17 11 12 9 9 10 9 10 11 10 10 17 18 16 17 16 16 14 14 14 13 13 14 13 13 15 17 18 17 17 17 17 17 17 19 19 21 21 20 19 20 20 19 17 18 18 17 17 17 18 20 19 15 15 16 17 18 17 15 13 15 15 14 13 12 10 10 10 10 10 11 10 9 9 9 9
11 10 14 13 16 12 12 12 13 13 15 15 9 10 9 9 9 8 8 10 13 16 12 16 16 18 17 17 13 15 13 14 14 14 14 14 18 17 16 16 17 18 18 18 18 19 19 19 20 19 20 20 20 19 19 19 18 18 17 18 20 19 17 15 15 18 18 17 16 15 15 15 15 14 12 13 13 12 12 11 10 9 9 9 9 9
20 14 12 14 16 19 16 13 12 14 15 15 12 11 11 9 8 10 10 14 16 13 7 12 16 16 23 21 5 6 13 17 15 13 13 14 15 17 17 18 16 17 18 17 18 17 18 19 20 21 21 20 20 19 21 20 19 18 18 19 20 19 19 17 18 20 19 17 17 16 15 15 14 15 14 13 13 12 11 10 11 10 10 9 10 10
16 16 15 16 14 17 17 15 13 14 15 16 15 13 13 12 12 10 12 9 10 13 12 6 11 16 14 12 17 21 15 9 11 12 11 13 13 15 17 17 16 16 17 17 18 18 18 18 20 21 21 21 20 22 21 21 19 18 17 20 21 20 20 19 19 19 18 19 18 16 15 14 13 14 14 13 13 13 11 11 11 12 11 10 11 11
14 17 20 20 14 18 20 17 14 10 15 15 14 14 12 10 9 10 9 13 13 8 10 12 5 10 9 5 8 17 17 17 13 11 10 11 11 12 15 15 17 17 18 17 18 19 20 21 22 20 21 21 20 22 21 19 19 18 18 19 21 21 21 21 20 18 19 18 18 16 15 15 13 13 13 13 12 12 12 12 12 11 11 11 10 11
23 13 10 23 10 19 20 19 16 13 12 14 14 12 13 15 8 9 5 10 9 9 8 13 12 4 7 4 4 2 9 15 16 16 15 15 16 15 14 15 15 16 17 18 19 20 21 20 21 19 19 20 20 22 21 22 20 20 19 20 21 22 21 21 20 19 19 18 16 18 18 19 15 12 12 12 11 12 12 12 12 12 12 11 10 10
11 15 11 21 20 17 21 19 18 15 12 13 14 17 16 11 12 10 8 5 7 6 11 8 12 13 10 10 9 7 6 8 10 11 12 12 14 14 14 14 16 16 17 17 19 19 21 20 20 20 21 20 20 20 21 22 22 22 20 20 21 21 20 21 21 20 19 18 18 19 19 19 16 16 16 14 15 15 13 12 12 12 12 12 11 10
10 9 12 16 24 18 19 20 20 20 12 10 15 15 12 12 12 10 10 7 10 12 10 11 15 11 10 10 11 19 18 16 16 15 14 13 13 14 14 14 15 16 17 20 20 19 20 21 22 21 20 21 22 23 23 23 22 21 20 21 21 21 22 21 21 21 19 19 19 18 18 18 17 17 17 15 14 14 12 12 12 12 12 13 12 11
10 8 11 16 19 18 18 18 18 20 21 12 11 12 14 14 14 10 7 13 11 13 10 13 14 14 11 10 3 8 15 16 16 16 16 15 15 15 15 17 16 17 16 16 17 17 18 20 21 22 23 25 25 23 23 23 22 20 20 20 22 23 23 23 20 20 18 19 16 16 18 19 18 17 16 14 14 13 14 15 14 14 13 12 12 12
9 9 9 14 17 18 16 16 17 17 20 19 10 13 14 9 11 12 12 7 8 10 9 11 14 12 9 11 12 7 9 11 12 14 15 16 16 15 15 15 16 16 15 16 16 18 19 21 23 23 23 23 22 22 21 23 21 23 23 22 21 21 20 20 20 19 19 20 18 17 17 18 17 17 15 14 14 14 15 15 15 15 14 14 12 13
5 9 7 12 17 17 16 15 17 17 18 17 16 13 13 11 6 9 10 13 10 10 10 8 9 6 5 7 12 14 9 8 8 9 11 12 14 17 16 15 15 15 15 15 16 17 20 20 21 21 21 21 20 18 18 19 21 21 20 22 23 22 22 23 22 21 19 18 19 19 19 19 19 19 16 17 16 16 15 14 15 14 13 12 13 13
8 10 12 9 13 16 13 14 17 19 18 17 16 15 14 14 12 12 12 10 13 10 7 8 9 2 5 3 7 11 12 13 13 12 10 11 12 12 11 14 14 14 16 16 17 17 17 17 18 18 17 16 18 20 21 20 20 20 21 21 22 22 21 23 22 20 19 19 18 21 20 20 19 18 17 18 17 17 16 15 15 15 14 14 14 14
5 4 12 10 11 11 13 15 17 17 18 19 17 16 16 15 12 10 9 11 11 12 11 10 9 6 5 6 3 2 3 6 9 12 12 10 10 11 11 11 10 9 10 11 12 12 13 14 14 16 18 19 20 20 21 20 20 21 23 22 20 22 23 23 22 21 19 19 19 21 20 19 18 18 19 20 17 19 18 17 16 15 16 15 14 14
5 6 8 12 7 7 11 12 17 19 20 19 19 18 18 18 16 12 10 6 9 10 12 9 11 4 5 4 6 9 9 9 6 8 11 10 8 6 5 4 6 6 7 7 8 9 9 11 13 13 16 18 17 18 20 20 20 20 21 22 21 24 24 23 21 20 20 19 20 21 20 19 19 20 20 20 18 20 19 17 16 16 16 16 15 14
8 12 11 11 8 6 8 9 13 17 17 15 15 17 19 18 19 16 13 10 11 12 13 10 12 5 6 5 2 2 5 6 6 5 5 8 8 7 4 3 4 5 7 9 11 11 11 12 14 14 15 16 17 18 18 19 19 20 20 21 22 22 23 21 20 20 21 21 22 21 20 21 20 20 21 21 19 21 20 19 17 15 17 16 16 16
5 8 15 14 17 16 17 17 17 18 18 13 14 17 21 21 21 17 15 12 10 10 14 12 9 3 7 5 6 6 7 5 4 4 4 5 4 4 2 3 3 5 6 7 8 10 12 11 11 12 14 13 16 17 16 16 18 19 19 21 21 20 20 21 20 20 20 20 21 20 22 21 21 21 22 21 20 21 20 19 18 17 16 17 17 17
4 3 9 10 9 11 4 5 8 5 14 16 18 19 19 21 20 18 12 13 13 11 14 14 11 6 7 6 8 7 5 6 6 6 4 4 3 3 4 3 4 4 5 7 8 8 8 10 13 14 15 15 17 17 17 18 18 18 17 19 20 18 19 19 19 20 20 20 21 19 21 21 21 20 21 20 20 18 18 19 20 19 18 17 17 17
4 6 6 4 2 3 3 4 6 6 6 16 20 20 17 18 21 21 18 15 9 10 13 11 12 14 8 6 7 7 7 3 1 3 2 1 4 7 5 2 6 6 6 7 8 9 11 12 12 12 14 15 15 16 16 17 18 17 18 18 19 19 18 17 19 20 20 19 19 19 20 20 20 20 19 18 18 18 18 18 18 18 17 16 17 18
2 7 4 5 3 3 3 3 3 1 2 1 5 11 18 16 17 21 20 18 15 13 11 7 13 14 13 11 6 6 6 6 7 7 4 6 8 5 3 6 7 4 8 8 8 9 9 10 10 12 12 13 15 17 19 17 17 16 16 17 17 19 19 18 18 20 20 19 19 19 19 18 17 17 17 18 17 18 18 18 17 17 16 16 16 15
6 2 3 2 5 4 3 3 2 4 2 6 9 8 9 12 15 16 16 17 21 16 13 13 10 13 13 15 16 14 10 9 9 10 13 15 13 12 11 8 7 5 3 6 9 8 9 10 10 11 11 12 15 16 17 17 17 19 18 17 17 18 18 16 18 18 19 19 19 17 17 17 16 16 17 17 18 18 18 17 16 16 17 17 17 15
6 4 3 5 5 5 5 6 3 6 5 7 9 10 11 11 11 13 13 15 14 16 19 17 17 16 10 10 11 11 12 12 13 13 14 15 18 18 16 13 11 11 9 10 4 8 7 8 10 10 12 13 15 16 16 16 16 17 19 18 18 18 18 18 16 17 18 18 16 15 16 15 16 16 18 18 17 16 17 17 16 15 16 16 16 16
6 3 2 3 5 7 7 8 7 4 7 10 11 13 14 15 16 13 13 13 14 14 14 13 14 12 9 11 10 12 11 10 11 12 12 13 16 16 17 17 15 14 14 13 10 2 6 8 10 11 13 14 15 16 16 15 16 17 18 18 18 18 18 18 17 18 17 17 15 15 16 15 16 16 17 17 18 18 17 16 17 16 16 16 17 15
4 5 3 3 6 7 6 4 5 6 7 12 17 17 17 17 16 14 14 14 15 13 15 16 13 8 9 9 10 9 12 14 14 13 13 14 13 14 15 17 17 17 16 15 13 6 6 7 7 10 11 11 13 15 17 16 16 17 17 16 15 13 15 17 18 16 16 15 15 16 15 15 16 17 17 18 18 16 16 16 17 17 17 18 16 15
4 4 5 3 5 5 3 2 2 5 12 12 3 12 19 19 17 17 15 15 15 16 13 12 11 9 10 11 12 11 12 13 12 12 12 11 12 14 16 16 17 17 17 16 12 7 5 5 5 5 7 9 11 13 13 15 18 16 15 14 14 16 16 17 16 15 15 15 15 15 15 16 16 16 17 16 15 15 16 16 17 17 15 14 15 15
5 4 6 3 5 6 3 3 5 13 11 5 4 3 1 8 13 16 15 16 17 17 18 18 15 14 11 8 8 8 9 10 12 14 14 13 11 11 12 14 14 13 13 12 10 11 7 5 5 6 7 8 10 10 11 14 15 13 13 15 17 16 16 17 17 15 15 16 16 16 16 17 17 16 15 15 15 15 16 16 16 16 15 15 15 16
7 6 5 6 6 6 6 7 10 9 6 1 3 3 3 3 4 6 13 14 12 12 14 17 17 17 16 15 14 13 13 14 14 13 12 14 14 13 15 14 14 15 15 11 7 4 4 6 7 7 6 5 7 9 11 12 13 15 15 15 16 15 16 15 15 15 14 16 17 17 17 18 17 16 15 15 16 17 17 17 18 18 16 15 15 15
11 7 6 7 5 8 8 9 11 4 6 6 6 5 2 5 3 4 9 12 14 9 3 3 5 8 10 12 13 14 15 15 12 10 13 14 14 14 15 15 13 8 5 5 6 6 4 6 8 8 7 7 7 8 9 10 12 14 14 15 16 15 15 15 15 16 16 16 16 16 16 15 15 15 15 15 16 17 18 18 18 17 14 16 16 16
11 10 5 7 6 8 8 8 9 10 12 8 6 7 3 5 2 1 4 5 8 4 4 3 4 6 9 8 7 7 7 5 11 11 12 15 14 14 12 9 5 4 5 5 4 5 6 6 7 8 8 8 7 7 6 9 11 12 13 13 14 14 14 16 17 16 14 14 14 14 14 15 16 16 17 16 18 18 18 17 15 16 15 16 16 16
14 12 10 8 8 8 10 11 10 9 6 4 6 8 6 2 2 3 2 9 7 7 5 3 4 5 6 6 6 6 5 9 9 9 10 14 11 10 9 6 5 3 1 2 3 4 5 5 6 6 5 6 6 6 6 8 10 12 12 12 13 14 15 16 16 15 14 14 14 14 15 16 17 17 17 17 18 17 17 16 16 15 14 16 16 16
15 12 10 11 12 10 10 11 12 7 6 6 6 5 6 4 2 6 7 6 9 8 6 3 5 6 7 7 6 5 6 8 8 3 12 10 5 3 1 2 1 0 0 1 1 3 3 4 3 2 2 3 2 1 6 8 10 11 11 11 12 14 15 15 14 13 14 14 14 14 15 15 15 16 16 16 14 13 14 13 13 15 15 15 14 14
13 12 12 14 12 12 13 11 8 6 6 6 4 4 5 2 4 6 8 5 3 5 2 3 5 5 6 8 6 6 5 6 7 10 9 6 3 2 3 3 2 2 3 4 4 5 2 1 1 2 2 2 0 2 5 7 9 10 9 10 11 12 12 11 11 12 12 12 14 14 14 13 14 15 15 14 13 13 13 13 13 13 13 14 12 12
12 10 10 11 13 12 12 13 11 8 3 2 8 11 3 5 6 7 4 3 1 2 1 2 4 3 4 7 7 7 9 12 13 12 10 7 3 3 3 2 2 2 2 3 3 3 1 2 2 3 4 3 2 3 5 6 7 7 7 8 9 9 8 8 9 9 11 11 12 13 13 13 12 12 12 13 12 12 12 12 12 12 13 12 12 14
9 11 13 13 10 10 10 11 9 10 5 4 5 6 8 10 3 6 2 2 2 4 5 1 2 2 3 7 8 9 12 12 12 10 6 4 2 1 2 3 2 3 4 4 2 3 2 2 3 5 5 5 5 3 5 6 7 7 7 6 5 5 6 6 7 8 9 10 10 11 11 11 12 10 10 11 12 12 12 11 12 13 12 13 13 14
4 6 9 11 10 11 11 12 7 1 7 9 7 5 2 6 11 8 8 7 2 4 4 5 2 3 4 7 10 10 11 12 9 8 9 8 2 1 1 1 2 1 1 1 3 3 3 3 3 5 6 7 7 6 5 7 7 7 9 8 4 4 4 5 5 6 8 9 9 10 10 10 11 11 10 11 11 12 12 12 12 12 12 12 13 13
7 7 4 5 3 5 6 6 6 14 11 8 8 7 10 9 8 8 7 6 6 3 3 5 4 4 4 7 9 10 10 9 9 9 9 8 4 3 2 1 1 1 1 2 3 3 3 4 5 5 7 6 8 8 8 8 9 10 9 6 4 4 3 3 5 6 7 8 8 9 9 9 9 10 10 10 11 11 11 13 13 13 13 14 14 14
7 2 3 5 7 8 13 14 13 13 13 11 9 9 11 13 10 8 9 9 5 6 5 5 4 5 5 5 8 8 8 8 8 8 8 7 6 3 1 2 3 2 2 3 4 3 4 4 5 6 8 8 8 8 8 8 9 10 7 5 4 3 3 3 4 4 5 5 6 7 8 9 9 10 10 10 10 10 10 11 12 13 13 14 13 13
8 3 3 4 8 7 7 4 10 12 13 13 12 11 11 11 11 9 8 7 6 6 6 3 5 4 4 3 3 4 6 6 7 6 3 2 2 3 4 3 2 1 1 3 3 3 3 4 4 6 7 9 8 8 9 9 8 8 6 6 5 5 3 3 4 4 4 4 4 5 5 7 7 8 8 10 10 10 10 10 11 12 12 12 12 13
6 3 7 10 10 10 12 12 15 16 16 17 14 11 10 11 11 11 9 8 8 6 6 4 4 3 2 2 1 2 3 3 5 4 5 4 3 3 3 4 3 2 2 3 4 3 4 4 5 5 7 8 7 8 8 8 8 7 6 5 5 5 5 5 4 5 4 4 4 3 5 7 6 4 5 7 8 8 8 9 10 9 9 10 10 10
8 6 9 6 9 10 13 14 16 17 18 18 19 15 11 9 11 12 10 9 9 8 5 3 3 1 1 2 1 2 2 1 3 3 4 3 3 2 2 3 3 3 3 4 4 4 5 4 5 6 7 7 7 7 7 8 7 7 6 5 5 5 6 6 6 6 7 5 5 4 5 3 2 4 5 6 6 5 2 6 5 4 4 5 5 5
10 11 11 11 12 12 12 9 6 8 9 9 9 4 8 10 13 16 14 12 10 7 5 4 2 1 2 3 3 3 4 5 4 2 2 3 3 3 4 4 5 5 6 6 6 7 7 6 6 6 7 7 6 7 8 8 8 7 6 5 5 5 6 6 6 6 5 5 5 5 4 3 3 3 3 2 1 4 4 8 7 4 3 5 8 8
11 11 9 11 11 12 10 11 8 9 12 13 13 12 11 10 9 12 16 16 14 9 6 3 2 3 4 4 3 4 4 3 4 2 5 4 5 5 4 5 6 7 7 8 9 9 9 9 9 9 9 8 7 8 9 9 9 8 8 7 7 6 7 7 7 6 6 6 5 4 3 4 4 4 4 3 3 2 2 2 4 7 5 2 3 4
Wind_Direction
170 206 199 208 210 205 209 215 218 222 241 257 231 226 229 230 235 227 223 141 213 257 248 254 254 258 262 273 207 196 193 203 208 202 199 198 196 193 193 194 194 192 189 182 182 185 183 184 182 183 180 184 185 186 181 181 182 183 183 180 182 186 186 186 189 192 196 196 197 201 202 203 201 206 206 209 213 214 211 205 201 195 203 201 205 210
194 215 215 210 211 209 208 210 218 228 223 233 229 226 231 230 236 228 230 173 205 239 250 260 269 264 258 248 241 202 199 199 202 207 205 202 201 198 196 195 195 190 185 177 180 186 184 184 182 182 181 183 184 186 185 185 185 185 186 185 183 184 186 190 192 193 195 197 197 194 199 199 197 195 201 204 208 210 206 198 198 199 203 203 205 208
203 218 214 207 210 215 215 210 213 220 219 224 236 232 238 234 238 241 237 174 220 246 256 257 265 264 262 256 256 217 203 201 207 208 207 204 203 202 200 198 189 185 186 182 182 183 186 185 183 182 183 184 187 185 187 186 184 185 188 187 185 186 187 192 192 194 195 195 195 195 193 200 197 197 200 205 202 205 207 194 197 202 203 204 208 210
209 223 216 210 207 213 215 211 207 214 224 227 225 231 232 232 231 220 216 215 226 239 258 256 266 269 266 260 252 236 213 206 206 210 212 208 206 203 202 196 191 186 184 186 184 184 185 185 184 185 185 185 187 187 188 188 188 187 192 191 190 188 189 192 194 195 194 192 190 194 195 196 209 195 196 203 201 201 205 201 195 201 203 203 211 210
209 203 205 210 210 208 204 199 205 212 220 225 233 233 234 232 230 247 174 163 215 229 245 261 265 265 254 251 240 222 214 211 205 207 213 215 212 210 206 199 194 190 186 186 186 186 185 186 187 186 185 184 187 188 189 191 190 193 192 191 190 190 190 191 192 192 192 191 190 186 189 192 204 212 199 196 201 200 200 205 200 202 200 203 211 212
223 209 171 203 207 202 206 212 213 216 227 224 226 233 237 240 244 226 251 247 233 238 208 227 254 251 245 243 245 231 191 207 200 202 206 207 208 204 206 200 198 199 190 188 188 188 187 187 184 185 186 187 187 190 191 190 190 191 191 192 192 192 192 193 192 188 188 187 187 185 186 195 201 203 202 202 201 199 201 208 205 198 201 203 208 212
226 204 190 200 197 201 212 223 212 210 225 227 222 218 233 241 238 243 227 235 243 247 229 217 250 258 248 244 228 224 192 206 191 203 204 200 205 204 204 202 198 197 193 193 193 191 190 188 187 187 189 192 191 189 188 189 191 190 190 191 191 193 194 194 195 193 188 193 193 191 196 200 201 202 206 206 204 206 202 205 206 200 199 203 208 210
214 209 186 194 198 208 214 221 211 206 220 231 223 220 216 222 230 230 235 242 258 264 263 196 229 264 261 244 232 197 211 204 191 195 204 201 204 206 205 204 201 199 197 191 192 193 193 189 190 190 190 191 193 186 185 189 190 190 190 189 191 193 194 194 196 195 192 198 192 197 201 204 206 206 203 197 202 204 202 202 206 201 201 199 206 212
200 201 191 194 200 203 215 213 202 201 217 224 212 214 222 218 223 229 236 244 247 252 243 234 229 250 251 251 241 236 223 212 205 198 196 203 203 205 206 207 204 203 199 196 192 192 194 194 194 191 190 192 189 185 186 187 188 188 190 190 191 195 196 191 190 189 192 198 195 198 201 205 209 208 205 195 197 200 200 204 201 203 201 198 202 209
200 213 198 201 196 210 212 205 206 199 214 220 217 202 227 217 222 230 237 239 243 241 244 234 225 245 253 246 237 217 228 221 217 210 201 196 200 202 207 208 207 203 201 201 199 194 194 195 194 193 189 187 190 189 186 186 185 186 187 191 194 197 192 188 188 189 192 198 196 198 202 204 204 203 203 201 194 196 195 202 203 202 205 206 204 205
205 204 209 204 208 216 205 206 207 205 214 217 200 208 203 214 219 221 231 239 241 244 240 234 231 238 263 244 236 223 211 220 229 221 213 199 198 201 206 207 205 203 202 203 202 197 194 194 192 190 191 190 188 188 185 185 184 185 187 190 195 196 190 189 189 190 195 199 199 201 203 204 204 201 199 199 197 194 195 202 204 203 205 210 214 212
198 198 206 206 214 216 214 209 210 210 202 215 192 211 217 212 218 218 219 215 236 244 233 227 230 229 249 252 233 239 239 215 221 231 220 201 196 199 202 207 207 203 202 202 201 200 194 191 192 190 192 189 188 188 187 188 186 186 187 187 191 192 192 189 190 194 200 200 201 204 204 204 205 200 199 201 202 197 199 200 203 205 207 209 214 217
220 207 205 204 203 211 196 215 192 194 200 206 202 205 208 191 184 208 201 213 222 240 228 227 222 230 232 246 262 230 224 229 223 229 230 211 202 197 197 204 205 203 201 200 200 198 194 192 190 191 190 188 188 190 189 188 187 185 186 187 189 191 189 190 194 197 198 200 204 204 205 207 206 204 203 203 205 201 201 201 202 201 205 206 210 213
221 211 198 202 200 201 205 202 185 194 196 199 203 198 201 197 194 210 209 228 243 230 229 237 222 243 255 263 231 239 233 238 227 221 229 226 214 196 197 200 203 202 200 200 198 200 197 194 192 191 188 187 188 191 190 189 188 185 186 187 188 190 189 190 194 194 197 205 208 205 205 206 205 207 204 205 207 205 205 202 203 204 205 206 210 211
198 203 208 189 202 184 205 209 198 198 188 200 203 207 209 216 204 206 211 214 225 243 192 192 206 236 222 231 235 224 225 219 216 223 223 224 224 205 200 198 202 200 201 199 199 199 198 195 193 191 189 188 188 189 189 190 190 186 187 187 188 188 189 190 191 194 199 205 208 206 207 209 206 207 206 207 208 207 206 205 204 205 206 210 211 212
214 227 190 193 193 180 199 199 211 185 196 197 200 213 217 216 218 236 217 237 228 218 201 192 213 202 217 107 56 65 196 206 220 228 227 223 220 212 199 198 199 202 202 200 201 201 201 197 193 191 190 190 189 188 189 190 189 190 189 188 188 189 188 190 192 193 197 202 206 208 209 214 207 207 209 206 205 208 207 205 205 205 206 210 209 210
203 222 174 181 200 192 194 191 203 190 200 182 198 210 212 205 221 236 255 291 312 276 233 201 227 241 282 262 229 212 211 202 198 207 210 213 212 210 205 200 200 203 203 200 202 202 200 196 194 194 192 190 189 188 189 188 189 190 188 187 189 190 188 189 191 193 196 200 204 207 209 212 208 210 211 204 203 206 205 207 208 208 208 208 209 208
213 204 171 174 193 194 192 194 197 195 219 164 205 206 200 215 232 229 244 204 222 236 233 213 232 229 219 260 218 217 216 216 219 220 219 212 206 204 205 203 201 204 203 202 202 201 196 195 195 195 195 194 192 191 190 189 189 189 188 187 187 188 190 190 190 192 193 196 201 203 204 207 208 211 213 208 204 203 203 205 209 211 209 209 208 207
218 206 169 186 187 186 186 189 202 204 210 220 206 177 195 183 207 210 235 227 216 226 239 231 236 242 229 230 158 207 216 215 216 214 218 217 212 208 202 203 206 208 207 204 203 199 197 197 198 197 196 194 192 192 191 189 186 187 190 190 189 190 191 189 190 192 193 196 198 201 202 204 207 211 213 207 205 202 205 209 206 210 210 210 207 207
197 227 154 184 191 176 187 191 204 195 198 224 220 207 204 211 210 198 207 242 235 244 234 234 224 241 215 239 235 220 213 219 213 212 216 218 212 209 206 205 204 205 206 205 202 200 199 199 199 199 199 199 196 192 191 189 188 189 189 189 192 192 190 190 191 190 193 195 197 200 201 203 205 205 208 206 203 205 207 208 209 209 210 209 207 208
218 227 237 166 190 173 196 194 205 189 188 195 205 212 190 214 203 227 203 218 221 236 243 255 239 230 226 215 222 224 213 199 207 212 212 221 222 214 211 208 200 201 202 204 203 201 201 200 200 201 201 200 197 193 193 192 194 194 190 191 192 190 191 192 193 192 195 195 199 198 197 199 200 203 204 204 204 207 208 208 210 211 211 206 209 207
233 196 225 158 186 192 204 190 205 195 195 197 197 206 195 192 196 199 213 203 230 235 239 242 249 280 104 216 193 223 219 230 230 227 216 215 220 225 218 208 203 198 199 201 202 202 202 201 202 202 199 200 198 196 194 193 192 193 194 195 193 193 192 194 194 194 194 196 198 199 200 200 200 200 202 204 205 205 207 208 208 209 208 209 207 207
305 258 215 201 194 198 209 183 202 208 197 199 196 202 195 202 209 204 211 195 212 233 250 251 275 257 64 101 124 101 221 229 234 226 225 220 220 214 219 217 203 206 208 205 205 205 203 199 201 201 200 198 199 199 197 195 193 193 197 196 194 195 195 195 194 193 193 195 197 200 200 200 201 200 201 203 204 207 207 207 207 205 207 208 208 206
251 221 206 229 201 198 214 182 194 211 204 205 209 211 202 208 203 211 220 210 218 215 222 228 240 236 130 163 229 228 230 237 226 217 225 226 215 213 213 213 164 175 185 194 201 202 200 198 198 201 200 200 200 201 199 197 197 195 194 195 194 198 198 196 194 192 192 193 197 198 198 200 201 201 202 204 207 208 209 208 206 205 208 208 210 207
207 207 227 198 212 173 193 182 205 209 216 218 208 204 213 210 208 217 227 231 240 221 224 218 235 225 167 157 177 216 209 223 221 205 216 229 231 239 249 145 160 180 186 197 197 195 195 199 195 198 199 197 197 199 199 199 200 199 197 195 196 197 196 194 193 193 193 195 197 197 198 200 201 202 204 207 207 208 208 209 208 206 208 208 210 210
268 201 198 210 201 195 190 192 196 196 205 207 222 207 208 212 205 207 215 214 229 219 224 229 230 212 98 201 197 214 207 213 234 234 182 203 232 262 251 162 183 203 201 200 193 191 198 198 196 196 198 196 197 199 199 200 202 202 200 199 198 196 192 193 193 193 193 196 198 197 198 198 200 203 205 207 209 209 209 210 210 209 206 208 209 209
242 269 226 237 247 231 230 34 27 316 191 206 201 217 205 209 211 215 221 221 216 214 233 231 240 229 165 176 188 187 189 194 196 201 209 232 249 207 180 213 196 180 183 188 190 194 193 198 201 198 195 197 198 198 199 199 201 202 201 202 201 197 193 191 191 192 194 196 198 197 198 198 200 203 205 205 208 210 210 211 211 211 210 206 209 208
233 206 206 262 259 359 0 331 16 356 211 198 206 204 216 209 210 216 216 220 209 221 233 221 215 234 219 175 181 174 161 172 305 302 280 260 13 332 342 153 197 195 182 176 184 192 200 205 207 206 203 201 201 201 203 203 202 201 202 202 200 197 195 192 192 192 194 195 197 197 197 198 199 201 203 204 205 207 210 210 211 211 210 208 208 210
310 223 153 254 235 342 314 321 343 351 257 306 216 201 205 214 218 220 223 226 221 224 236 207 216 225 231 226 189 204 231 233 232 248 292 337 307 299 323 329 308 215 172 178 183 196 202 207 211 213 211 208 207 206 206 206 206 203 202 202 199 198 198 193 191 193 193 193 195 197 195 194 196 199 200 201 202 205 208 210 210 210 210 209 210 210
303 217 43 254 296 288 247 254 237 228 224 226 229 226 219 218 222 229 234 232 231 236 242 248 239 234 229 236 245 250 248 260 279 294 295 291 292 304 305 297 279 261 231 189 184 190 199 209 210 210 210 207 207 207 207 206 205 203 201 200 199 199 198 193 193 193 194 196 197 194 189 189 191 194 196 198 200 202 204 207 207 208 209 210 211 210
310 84 16 324 287 235 222 229 219 228 229 244 240 243 237 233 233 230 233 237 248 250 244 240 243 248 237 248 258 259 258 256 258 259 267 286 294 292 290 285 273 273 292 305 166 175 190 203 209 210 210 208 207 207 206 206 205 204 205 201 199 198 196 195 194 194 195 198 195 187 185 186 190 190 194 198 198 199 201 204 206 208 208 209 209 210
306 333 339 289 254 226 199 214 218 243 258 253 245 237 231 226 227 218 223 224 230 234 245 250 249 244 246 246 254 255 252 258 263 266 268 267 271 275 275 273 271 278 289 292 295 217 174 194 200 205 210 211 211 207 206 206 204 202 205 201 201 197 193 195 195 194 195 194 186 184 185 188 188 191 194 194 197 198 198 199 204 206 206 207 208 208
320 320 293 234 230 223 148 198 229 260 271 251 233 226 226 226 231 231 231 227 230 234 238 236 241 253 252 246 241 234 248 253 256 260 264 265 267 270 271 272 277 282 285 285 279 248 240 232 217 208 216 219 216 212 210 204 203 206 205 202 199 192 193 196 196 195 195 191 186 186 188 188 190 192 194 196 196 196 196 198 203 207 207 208 207 207
281 285 273 304 249 222 137 222 275 244 227 239 250 215 217 222 216 224 226 225 224 220 239 248 256 254 242 234 242 249 250 255 261 262 260 264 268 263 263 264 268 272 276 279 280 273 270 251 252 249 230 223 226 223 214 208 209 206 199 194 189 193 194 193 196 194 193 191 191 189 190 193 194 195 198 196 195 196 199 200 205 207 208 210 208 211
284 268 252 259 249 248 255 269 233 225 230 84 109 84 131 235 235 238 237 232 227 225 234 243 245 249 252 262 264 273 277 275 266 265 265 262 266 269 269 273 275 275 276 273 271 271 263 259 263 256 244 239 235 227 216 212 212 204 195 190 188 189 191 194 192 193 191 192 192 191 192 194 196 198 196 195 195 197 202 204 207 208 209 211 212 212
247 243 254 245 249 271 266 221 222 217 43 330 124 96 91 165 209 231 249 243 248 249 242 246 243 246 248 251 256 263 270 270 269 265 260 263 264 261 266 268 267 270 269 272 278 282 277 275 273 270 267 261 241 229 219 214 205 201 196 190 187 186 189 188 189 192 192 192 192 193 196 196 196 196 194 195 195 200 203 206 208 208 207 211 214 216
233 248 251 256 226 244 229 234 238 322 298 226 227 165 168 170 123 222 228 219 224 234 281 336 302 275 270 263 257 254 259 260 262 262 262 261 252 247 255 260 267 270 281 288 288 284 291 287 276 273 270 253 247 238 222 210 202 201 194 191 191 186 188 191 193 196 195 196 194 195 196 197 194 194 196 196 196 201 204 205 208 209 205 210 214 214
216 228 205 237 234 234 245 243 240 238 247 225 207 102 104 79 37 26 298 237 94 70 26 328 282 290 282 289 298 320 350 281 261 263 263 259 245 240 237 240 238 252 265 280 296 283 273 269 273 264 255 255 244 239 225 208 202 198 196 193 188 186 187 194 200 199 198 197 195 193 192 193 193 194 195 197 200 203 206 207 207 209 205 211 213 217
210 219 243 235 240 221 229 239 234 235 234 38 152 124 98 128 102 161 177 244 102 60 49 335 298 303 303 311 312 308 269 249 254 261 262 258 243 222 221 212 221 232 287 314 310 305 310 306 289 275 235 238 234 218 211 206 201 193 191 187 186 187 191 199 202 200 199 198 195 194 193 194 196 197 196 199 204 204 204 205 206 207 205 211 214 218
206 208 213 225 232 232 237 228 233 234 246 174 154 91 109 101 88 226 241 219 92 43 22 345 321 316 322 322 310 278 245 248 253 313 359 360 53 64 126 157 162 47 339 334 345 328 320 308 259 225 168 174 150 196 194 194 195 192 188 186 188 195 200 201 198 196 197 198 196 196 198 200 199 201 202 204 205 204 207 208 211 210 209 213 215 218
203 207 209 221 219 221 231 247 256 254 246 290 177 147 110 12 300 221 227 74 113 4 11 342 298 318 312 306 301 274 251 267 301 328 321 335 316 84 64 47 43 20 7 357 14 325 311 295 355 55 45 48 219 212 202 191 194 193 191 186 193 202 204 199 195 194 194 195 198 200 201 203 203 204 206 206 205 203 206 208 213 214 215 218 220 223
203 210 209 220 223 221 218 231 241 253 270 283 241 247 212 284 215 227 72 188 146 327 80 266 299 301 312 294 296 286 292 294 294 297 299 300 342 40 29 42 58 76 55 33 360 316 343 18 47 64 70 64 101 165 176 180 181 182 178 183 189 194 196 193 191 191 193 194 199 203 204 206 206 205 208 207 206 207 210 210 212 215 218 218 219 222
201 205 213 208 215 227 228 235 227 233 160 257 286 216 250 249 308 42 316 123 341 346 345 355 279 313 309 295 289 291 289 289 289 292 310 320 308 1 23 23 27 28 23 9 29 21 355 40 35 42 47 56 53 96 153 159 154 151 158 160 150 170 172 176 184 184 189 192 198 204 206 205 204 201 203 206 206 210 210 209 212 215 218 222 225 229
156 235 219 218 206 216 216 220 217 176 8 360 353 268 38 301 333 331 325 292 7 340 345 328 349 339 314 290 294 297 297 294 283 276 281 279 285 287 33 352 328 340 115 11 20 33 44 56 51 52 50 51 51 57 90 128 130 121 120 119 90 73 115 159 177 180 190 194 199 201 203 203 203 203 206 206 207 209 213 214 213 215 221 223 228 231
186 229 24 267 2 301 254 253 347 331 307 322 323 312 312 312 325 339 322 317 318 328 352 294 331 327 309 302 292 291 292 286 288 286 272 261 249 214 203 207 248 220 135 92 61 35 51 63 65 73 75 73 60 59 71 82 91 87 83 72 70 87 111 140 174 182 193 194 197 200 204 207 209 208 207 205 205 209 212 217 221 226 228 233 234 236
94 334 327 284 276 286 280 274 281 277 285 298 333 325 325 319 308 310 319 305 313 316 307 314 315 310 307 295 295 294 286 289 286 273 259 251 243 191 165 189 196 194 144 117 110 88 83 79 77 79 80 81 81 78 69 74 83 90 96 100 103 110 138 154 154 172 185 193 198 201 205 208 208 210 209 210 211 214 221 224 228 232 233 233 235 237
259 218 187 256 272 281 265 267 264 277 294 311 307 314 311 311 310 311 304 303 301 292 292 319 303 300 284 285 302 310 299 278 258 256 280 297 252 204 187 171 158 152 116 102 100 137 109 92 84 79 77 76 75 77 84 84 83 88 96 97 108 108 108 137 144 146 152 170 177 186 206 211 212 208 207 215 220 223 227 232 238 238 236 237 241 241
235 149 253 236 251 250 262 283 295 296 295 295 293 295 303 304 304 304 304 302 298 288 290 298 277 268 266 232 297 323 316 292 270 233 227 229 230 210 187 173 159 148 100 103 109 91 93 93 91 85 80 77 73 75 79 82 83 81 81 78 77 100 113 115 118 129 126 146 170 174 193 197 194 220 218 211 215 224 229 233 233 235 235 237 240 249
279 291 265 275 266 266 268 269 273 281 279 275 278 276 276 285 294 298 291 279 268 265 262 271 288 291 150 115 151 59 3 327 280 260 227 205 197 181 185 153 124 112 97 89 84 84 92 91 85 83 85 81 79 79 80 79 79 84 86 91 102 115 121 117 106 105 99 81 65 79 57 69 106 193 219 220 216 211 21 18 10 2 349 351 18 12
247 246 248 256 259 256 255 262 278 267 258 246 239 297 341 344 341 321 296 271 263 250 250 234 197 110 114 129 140 106 73 6 338 299 170 150 154 165 162 133 123 117 111 109 106 103 102 99 105 97 91 87 82 84 83 80 79 79 80 85 91 104 114 114 113 113 113 111 107 100 94 78 98 62 55 39 3 8 17 97 87 51 345 332 1 24
251 255 261 254 253 255 252 247 244 260 278 283 291 301 315 322 327 313 310 313 297 255 227 220 175 131 113 106 111 115 93 66 16 67 101 77 60 53 79 115 114 111 107 111 113 108 106 104 102 102 97 95 94 88 82 79 76 72 69 72 80 94 100 109 110 103 94 88 81 65 99 117 108 93 84 75 69 52 22 304 81 80 87 113 314 320